• In Russia
  • List of Countries
  • For 7 days
  • Water Temperature
  • Weather Map
  • Weather Widgets
  • user-avatar
    Login

    Hourly Weather Jaunde

    Today, 5 June, Friday

    Time Temperature Precipitation Wind Pressure Humidity
    00:00 +23°C° 1.8 mm 1 mps 699 mmHg 98%
    01:00 +23°C° 0 mm 1 mps 698 mmHg 98%
    02:00 +23°C° 0.7 mm 1 mps 698 mmHg 98%
    03:00 +22°C° 0.7 mm 1 mps 698 mmHg 98%
    04:00 +22°C° 0.7 mm 1 mps 698 mmHg 99%
    05:00 +22°C° 0 mm 1 mps 698 mmHg 98%
    06:00 +22°C° 0 mm 1 mps 699 mmHg 98%
    07:00 +22°C° 0 mm 1 mps 699 mmHg 98%
    08:00 +24°C° 0.5 mm 1 mps 699 mmHg 94%
    09:00 +25°C° 0.5 mm 1 mps 700 mmHg 89%
    10:00 +27°C° 0.5 mm 1 mps 700 mmHg 84%
    11:00 +27°C° 1.9 mm 1 mps 699 mmHg 85%
    12:00 +27°C° 1.9 mm 1 mps 699 mmHg 87%
    13:00 +27°C° 0 mm 1 mps 699 mmHg 89%
    14:00 +25°C° 1.7 mm 0 mps 698 mmHg 88%
    15:00 +26°C° 1.7 mm 0 mps 698 mmHg 86%
    16:00 +26°C° 1.7 mm 0 mps 697 mmHg 85%
    17:00 +24°C° 0.6 mm 0 mps 698 mmHg 88%
    18:00 +23°C° 0.6 mm 0 mps 698 mmHg 91%
    19:00 +21°C° 0.6 mm 0 mps 699 mmHg 95%
    20:00 +21°C° 0.1 mm 0 mps 699 mmHg 96%
    21:00 +23°C° 0.1 mm 1 mps 699 mmHg 97%
    22:00 +22°C° 0.1 mm 1 mps 700 mmHg 97%
    23:00 +22°C° 0 mm 1 mps 699 mmHg 98%

    Tomorrow, 6 June, Saturday

    Time Temperature Precipitation Wind Pressure Humidity
    00:00 +22°C° 0 mm 1 mps 699 mmHg 98%
    01:00 +22°C° 0 mm 1 mps 699 mmHg 99%
    02:00 +22°C° 0 mm 1 mps 699 mmHg 99%
    03:00 +22°C° 0 mm 1 mps 699 mmHg 99%
    04:00 +22°C° 0 mm 1 mps 698 mmHg 99%
    05:00 +22°C° 0 mm 1 mps 699 mmHg 98%
    06:00 +23°C° 0 mm 1 mps 699 mmHg 97%
    07:00 +23°C° 0 mm 1 mps 700 mmHg 96%
    08:00 +22°C° 0.1 mm 0 mps 700 mmHg 90%
    09:00 +23°C° 0.1 mm 0 mps 701 mmHg 85%
    10:00 +25°C° 0.1 mm 0 mps 701 mmHg 79%
    11:00 +24°C° 1.8 mm 0 mps 700 mmHg 83%
    12:00 +24°C° 1.8 mm 0 mps 700 mmHg 87%
    13:00 +24°C° 1.8 mm 0 mps 699 mmHg 91%
    14:00 +24°C° 0.1 mm 0 mps 698 mmHg 88%
    15:00 +24°C° 0.1 mm 0 mps 697 mmHg 85%
    16:00 +24°C° 0.1 mm 0 mps 697 mmHg 83%
    17:00 +24°C° 0 mm 0 mps 697 mmHg 85%
    18:00 +23°C° 0 mm 0 mps 697 mmHg 88%
    19:00 +24°C° 0 mm 1 mps 698 mmHg 91%
    20:00 +23°C° 0 mm 1 mps 698 mmHg 93%
    21:00 +23°C° 0 mm 1 mps 698 mmHg 95%
    22:00 +22°C° 0 mm 1 mps 699 mmHg 97%
    23:00 +22°C° 0 mm 1 mps 698 mmHg 97%

    Day after tomorrow, 7 June, Sunday

    Time Temperature Precipitation Wind Pressure Humidity
    00:00 +22°C° 0 mm 1 mps 698 mmHg 98%
    01:00 +22°C° 0 mm 1 mps 698 mmHg 98%
    02:00 +22°C° 0 mm 1 mps 698 mmHg 97%
    03:00 +22°C° 0 mm 1 mps 698 mmHg 96%
    04:00 +22°C° 0 mm 1 mps 698 mmHg 94%
    05:00 +23°C° 0 mm 1 mps 698 mmHg 93%
    06:00 +23°C° 0 mm 1 mps 699 mmHg 92%
    07:00 +23°C° 0 mm 1 mps 699 mmHg 92%
    08:00 +25°C° 0 mm 1 mps 700 mmHg 84%
    09:00 +26°C° 0 mm 1 mps 700 mmHg 77%
    10:00 +28°C° 0 mm 1 mps 700 mmHg 69%
    11:00 +28°C° 0.5 mm 1 mps 700 mmHg 70%
    12:00 +29°C° 0.5 mm 1 mps 699 mmHg 70%
    13:00 +29°C° 0.5 mm 1 mps 698 mmHg 70%
    14:00 +28°C° 3 mm 1 mps 698 mmHg 78%
    15:00 +24°C° 3 mm 0 mps 697 mmHg 87%
    16:00 +22°C° 3 mm 0 mps 696 mmHg 95%
    17:00 +24°C° 0.3 mm 1 mps 697 mmHg 96%
    18:00 +23°C° 0.3 mm 1 mps 697 mmHg 97%
    19:00 +23°C° 0.3 mm 1 mps 697 mmHg 97%
    20:00 +22°C° 0 mm 1 mps 697 mmHg 98%
    21:00 +22°C° 0 mm 1 mps 698 mmHg 98%
    22:00 +22°C° 0 mm 1 mps 698 mmHg 99%
    23:00 +22°C° 0 mm 1 mps 698 mmHg 99%

    8 June, Monday

    Time Temperature Precipitation Wind Pressure Humidity
    00:00 +22°C° 0 mm 1 mps 698 mmHg 99%
    01:00 +21°C° 0 mm 1 mps 698 mmHg 99%
    02:00 +21°C° 0 mm 1 mps 698 mmHg 99%
    03:00 +21°C° 0 mm 1 mps 697 mmHg 99%
    04:00 +21°C° 0 mm 1 mps 697 mmHg 99%
    05:00 +21°C° 0 mm 1 mps 698 mmHg 98%
    06:00 +21°C° 0 mm 1 mps 698 mmHg 98%
    07:00 +21°C° 0 mm 1 mps 698 mmHg 97%
    08:00 +23°C° 0 mm 1 mps 699 mmHg 90%
    09:00 +25°C° 0 mm 1 mps 699 mmHg 83%
    10:00 +26°C° 0 mm 1 mps 699 mmHg 75%
    11:00 +27°C° 0.3 mm 2 mps 699 mmHg 72%
    12:00 +28°C° 0.3 mm 2 mps 698 mmHg 70%
    13:00 +29°C° 0.3 mm 2 mps 698 mmHg 67%
    14:00 +29°C° 0.1 mm 2 mps 697 mmHg 69%
    15:00 +29°C° 0.1 mm 2 mps 697 mmHg 70%
    16:00 +28°C° 0.1 mm 2 mps 696 mmHg 72%
    17:00 +27°C° 0.1 mm 2 mps 696 mmHg 79%
    18:00 +25°C° 0.1 mm 2 mps 696 mmHg 85%
    19:00 +24°C° 0.1 mm 1 mps 697 mmHg 92%
    20:00 +23°C° 0 mm 1 mps 697 mmHg 94%
    21:00 +23°C° 0 mm 1 mps 697 mmHg 96%
    22:00 +22°C° 0 mm 1 mps 698 mmHg 98%
    23:00 +22°C° 0 mm 1 mps 698 mmHg 98%

    9 June, Tuesday

    Time Temperature Precipitation Wind Pressure Humidity
    00:00 +22°C° 0 mm 1 mps 698 mmHg 97%
    01:00 +22°C° 0 mm 1 mps 697 mmHg 96%
    02:00 +22°C° 0 mm 1 mps 697 mmHg 95%
    03:00 +22°C° 0 mm 1 mps 697 mmHg 94%
    04:00 +22°C° 0 mm 1 mps 697 mmHg 93%
    05:00 +22°C° 0 mm 1 mps 697 mmHg 93%
    06:00 +22°C° 0 mm 1 mps 698 mmHg 92%
    07:00 +23°C° 0 mm 1 mps 698 mmHg 92%
    08:00 +23°C° 0 mm 1 mps 699 mmHg 87%
    09:00 +24°C° 0 mm 1 mps 699 mmHg 83%
    10:00 +25°C° 0 mm 1 mps 700 mmHg 79%
    11:00 +27°C° 0 mm 1 mps 699 mmHg 72%
    12:00 +28°C° 0 mm 1 mps 699 mmHg 66%
    13:00 +30°C° 0 mm 1 mps 698 mmHg 60%
    14:00 +29°C° 1 mm 1 mps 698 mmHg 70%
    15:00 +28°C° 1 mm 1 mps 697 mmHg 80%
    16:00 +27°C° 1 mm 1 mps 697 mmHg 89%
    17:00 +26°C° 0.6 mm 1 mps 697 mmHg 92%
    18:00 +24°C° 0.6 mm 1 mps 697 mmHg 95%
    19:00 +23°C° 0.6 mm 1 mps 697 mmHg 98%
    20:00 +23°C° 0 mm 1 mps 697 mmHg 98%
    21:00 +22°C° 0 mm 1 mps 698 mmHg 98%
    22:00 +21°C° 0 mm 2 mps 698 mmHg 99%
    23:00 +22°C° 0 mm 1 mps 698 mmHg 98%

    10 June, Wednesday

    Time Temperature Precipitation Wind Pressure Humidity
    00:00 +22°C° 0 mm 1 mps 698 mmHg 98%
    01:00 +22°C° 0 mm 1 mps 698 mmHg 98%
    02:00 +22°C° 0 mm 1 mps 698 mmHg 98%
    03:00 +22°C° 0 mm 1 mps 698 mmHg 98%
    04:00 +22°C° 0 mm 1 mps 698 mmHg 98%
    05:00 +20°C° 0 mm 0 mps 698 mmHg 98%
    06:00 +20°C° 0 mm 0 mps 698 mmHg 97%
    07:00 +20°C° 0 mm 0 mps 698 mmHg 97%
    08:00 +23°C° 0 mm 1 mps 699 mmHg 90%
    09:00 +25°C° 0 mm 1 mps 699 mmHg 82%
    10:00 +27°C° 0 mm 1 mps 700 mmHg 74%
    11:00 +28°C° 0 mm 1 mps 700 mmHg 66%
    12:00 +30°C° 0 mm 1 mps 699 mmHg 59%
    13:00 +32°C° 0 mm 1 mps 699 mmHg 51%
    14:00 +31°C° 0.7 mm 2 mps 698 mmHg 59%
    15:00 +29°C° 0.7 mm 2 mps 697 mmHg 67%
    16:00 +28°C° 0.7 mm 2 mps 696 mmHg 76%
    17:00 +27°C° 1.6 mm 2 mps 697 mmHg 83%
    18:00 +25°C° 1.6 mm 2 mps 697 mmHg 90%
    19:00 +23°C° 1.6 mm 2 mps 697 mmHg 97%
    20:00 +23°C° 2.1 mm 2 mps 698 mmHg 97%
    21:00 +23°C° 2.1 mm 2 mps 698 mmHg 98%
    22:00 +21°C° 2.1 mm 2 mps 699 mmHg 98%
    23:00 +21°C° 4.3 mm 1 mps 699 mmHg 98%
    Show more